Погода в Няксимволе

Россия / Ханты-Мансийский автономный округ - Югра     62°25′36″N   60°51′38″E
темп.,
°C
ветер,
м/с
пор.,
м/с
влажн.,
%
обл.,
%
осадки,
мм/ч
давл.,
гПа
погр.,
м
13 мая, чт
чт1323:00+15зюз397585 0.0 1020151
02:00+14сз227787 0.0 102037
05:00+13зсз268012 0.0 1022119
08:00+18ссз4955100 0.0 1023802
11:00+21ссз47385 0.0 10231457
14:00+24ссз37326 0.0 10232090
17:00+25сз36341 0.0 10222418
20:00+21сз11475 0.0 102211
14 мая, пт
пт1423:00+16ю23600 0.0 102149
02:00+15юз26715 0.0 1019102
05:00+15юз310715 0.0 1019183
08:00+21зюз410475 0.0 1018554
11:00+25з6113699 0.0 10171389
14:00+26з51034100 0.0 10162713
17:00+25з6938100 0.0 10151972
20:00+20зюз4960100 0.4 1014369
15 мая, сб
сб1523:00+15зюз2594100 6.4 1014145
02:00+14ююз389587 0.9 1012202
05:00+16зюз4128599 0.9 1012580
08:00+18з5107464 0.1 10131127
11:00+16ссз478395 0.5 1015654
14:00+17с24687 0.1 1016525
17:00+21св245388 0.1 1015860
20:00+19ю226575 0.0 101456
16 мая, вс
вс1623:00+15юв228153 0.0 101413
02:00+14ссз2278100 0.0 101426
05:00+13св3592100 0.3 1012133
08:00+15ссв2183100 0.3 1011337
11:00+19зсз146598 0.3 1009560
14:00+26з7134034 0.2 10082647
17:00+20с246019 0.3 1007141
20:00+16ююз31188100 3.8 1008376
17 мая, пн
пн1723:00+13сз239341 4.8 100896
02:00+10ссв369774 0.3 1009198
05:00+10ююз269711 0.4 1008139
08:00+17зюз510756 0.0 10071108
11:00+19з6125953 0.5 10081699
14:00+17сз6116179 0.3 10101263
17:00+12с5780100 0.3 1013565
20:00+7с4879100 0.0 1016455